#timestamp,LO_Frequency,Hit 
1503669615.7,286047001.9,N
1503669635.5,286047001.2,N
1503669655.4,286046999.9,N
1503669675.2,286047000.4,N
1503669695.0,286046998.2,N
1503669695.9,286046998.2,N
1503669715.8,286047000.9,N
1503669735.6,286047002.6,N
1503669755.4,286047001.4,N
1503669775.3,286047002.4,N
1503669795.1,286047002.3,N
1503669796.0,286047002.3,N
1503669815.8,286047004.0,N
1503669835.7,286047003.6,N
1503669855.5,286047004.4,N
1503669875.3,286047001.7,N
1503669895.2,286047000.4,N
1503669915.9,286047001.1,N
1503669935.8,286046998.8,N
1503669955.7,286046997.2,N
1503669975.5,286046992.8,P
1503669995.3,286046989.3,N
1503670015.2,286046987.2,N
1503670035.9,286046985.4,N
1503670055.7,286046989.3,N
1503670075.6,286046990.0,N
1503670095.4,286046988.4,N
1503670115.2,286046983.6,P
1503670135.1,286046988.6,P
1503670136.0,286046988.6,P
1503670155.8,286046990.5,P
1503670175.7,286047004.8,P
1503670195.8,286047006.7,N
1503670215.6,286047010.1,N
1503670235.4,286047013.9,N
1503670255.3,286047012.4,N
1503670275.1,286047009.6,N
1503670276.0,286047009.6,N
1503670295.8,286047012.3,N
1503670315.7,286047012.1,N
1503670335.5,286047012.4,N
1503670355.3,286047013.3,N
1503670375.1,286047013.9,N
1503670395.9,286047012.7,N
1503670415.7,286047014.0,N
1503670435.5,286047011.8,N
1503670455.4,286047011.4,N
1503670475.2,286047012.6,N
1503670495.0,286047013.6,N
1503670495.9,286047013.6,N
1503670515.8,286047013.2,N
1503670535.6,286047015.1,N
1503670555.4,286047014.8,N
1503670575.3,286047015.3,N
1503670595.1,286047017.2,N
1503670596.0,286047017.2,N
1503670615.8,286047016.8,N
1503670635.7,286047016.2,N
1503670655.5,286047015.7,N
1503670675.3,286047020.4,P
1503670695.2,286047009.1,N
1503670715.9,286047007.2,N
1503670735.7,286047010.7,N
1503670755.5,286047004.5,N
1503670775.4,286047004.5,N
1503670795.2,286047004.9,N
1503670815.0,286047001.6,N
1503670815.9,286047001.6,N
1503670835.8,286047003.8,N
1503670855.6,286047001.6,N
1503670875.4,286047002.5,N
1503670895.3,286047000.6,N
1503670915.1,286046999.8,N
1503670935.8,286047004.0,N
1503670955.7,286047003.5,N
1503670975.5,286047003.9,N
1503670995.3,286047001.0,N
1503671015.2,286046997.8,N
1503671035.9,286046995.4,N
1503671055.7,286046995.6,N
1503671075.6,286046995.7,N
1503671095.4,286046997.8,N
1503671115.2,286046998.2,N
1503671135.0,286047001.8,N
1503671136.0,286047001.8,N
1503671155.1,286047004.1,N
1503671156.0,286047004.1,N
1503671175.8,286047004.4,N
1503671195.7,286047001.6,N
1503671215.5,286047001.3,N
1503671235.3,286046999.4,N
1503671255.2,286046993.7,N
1503671275.9,286046995.0,N
1503671295.7,286046999.4,N
1503671315.6,286046996.7,N
1503671335.4,286046999.3,N
1503671355.2,286046999.7,N
1503671375.0,286047002.2,N
1503671375.9,286047002.2,N
1503671395.8,286047001.0,N
1503671415.6,286047000.6,N
1503671435.4,286047002.3,N
1503671455.3,286047002.3,N
1503671475.1,286047004.1,N
1503671495.8,286047003.7,N
1503671515.7,286047005.3,N
1503671535.5,286047005.1,N
1503671555.3,286047005.4,N
1503671575.2,286047007.4,N
1503671595.9,286047006.5,N
1503671615.7,286047007.3,N
1503671635.6,286047009.2,N
1503671655.4,286047010.1,N
1503671675.2,286047007.0,N
1503671695.0,286047003.5,N
1503671695.9,286047003.5,N
1503671715.8,286047003.6,N
1503671735.6,286047005.8,N
1503671755.4,286047006.1,N
1503671775.3,286047004.9,N
1503671795.1,286047007.6,N
1503671815.8,286047006.4,N
1503671835.7,286047007.5,N
1503671855.5,286047008.6,N
1503671875.3,286047010.6,P
1503671895.2,286047003.0,N
1503671915.9,286047005.4,N
1503671935.7,286047005.3,N
1503671955.6,286047005.7,N
1503671975.4,286047004.3,N
1503671995.2,286047003.1,N
1503672015.1,286047005.8,N
1503672016.0,286047005.8,N
1503672035.8,286047004.5,N
1503672055.6,286047009.1,P
1503672075.5,286047001.5,N
1503672095.3,286047000.1,N
1503672115.1,286047002.1,N
1503672135.9,286047003.7,N
1503672155.7,286047003.7,N
1503672175.5,286047005.5,N
1503672195.4,286047004.8,N
1503672215.2,286047008.6,P
1503672235.0,286047007.2,P
1503672235.9,286047007.2,P
1503672255.8,286047007.5,P
1503672275.6,286046999.9,N
1503672295.4,286046998.8,N
1503672315.3,286046999.1,N
1503672335.1,286046999.0,N
1503672355.8,286046996.9,N
1503672375.7,286046993.8,N
1503672395.5,286046990.6,N
1503672415.3,286046989.8,N
1503672435.2,286046992.9,N
1503672455.9,286046989.7,N
1503672475.7,286046987.7,N
1503672495.6,286046987.9,N
1503672515.4,286046985.8,N
1503672535.2,286046989.7,N
1503672555.0,286046990.0,N
1503672556.0,286046990.0,N
1503672575.8,286046991.2,N
1503672595.6,286046991.6,N
1503672615.4,286046986.9,N
1503672635.3,286046986.8,N
1503672655.1,286046984.7,N
1503672675.8,286046981.1,P
1503672695.7,286046989.7,N
1503672715.5,286046991.1,N
1503672735.3,286046987.4,N
1503672755.2,286046986.0,P
1503672775.0,286046998.6,N
1503672775.9,286046998.6,N
1503672795.8,286046998.2,N
1503672815.6,286046998.9,N
1503672835.4,286047000.8,N
1503672855.3,286047001.5,N
1503672875.1,286047001.7,N
1503672876.0,286047001.7,N
1503672895.8,286047003.8,N
1503672915.6,286047005.4,N
1503672935.5,286047004.9,N
1503672955.3,286047006.8,N
1503672975.1,286047009.0,N
1503672995.9,286047010.5,N
1503673015.7,286047012.4,N
1503673035.7,286047008.3,N
1503673055.5,286047007.4,N
1503673075.4,286047005.4,N
1503673095.2,286047005.7,N
1503673115.0,286047000.7,N
1503673115.9,286047000.7,N
1503673135.8,286047002.1,N
1503673155.6,286047000.8,N
1503673175.4,286046998.6,N
1503673195.2,286046999.2,N
